Year,Month,Day,Hour,Minute,Value (Times are PST for temperature in C)
2016,05,22,00,00,13.20
2016,05,22,00,01,13.20
2016,05,22,00,02,13.20
2016,05,22,00,03,13.20
2016,05,22,00,04,13.20
2016,05,22,00,05,13.20
2016,05,22,00,06,13.20
2016,05,22,00,07,13.20
2016,05,22,00,08,13.20
2016,05,22,00,09,13.20
2016,05,22,00,10,13.20
2016,05,22,00,11,13.20
2016,05,22,00,12,13.20
2016,05,22,00,13,13.20
2016,05,22,00,14,13.20
2016,05,22,00,15,13.20
2016,05,22,00,16,13.20
2016,05,22,00,17,13.20
2016,05,22,00,18,13.20
2016,05,22,00,19,13.20
2016,05,22,00,20,13.20
2016,05,22,00,21,13.20
2016,05,22,00,22,13.20
2016,05,22,00,24,13.20
2016,05,22,00,25,13.20
2016,05,22,00,27,13.20
2016,05,22,00,29,13.20
2016,05,22,00,30,13.20
2016,05,22,00,32,13.20
2016,05,22,00,34,13.20
2016,05,22,00,35,13.20
2016,05,22,00,36,13.20
2016,05,22,00,37,13.20
2016,05,22,00,39,13.20
2016,05,22,00,40,13.20
2016,05,22,00,41,13.20
2016,05,22,00,42,13.20
2016,05,22,00,43,13.20
2016,05,22,00,44,13.20
2016,05,22,00,46,13.20
2016,05,22,00,47,13.20
2016,05,22,00,48,13.20
2016,05,22,00,49,13.20
2016,05,22,00,51,13.20
2016,05,22,00,53,13.20
2016,05,22,00,55,13.20
2016,05,22,00,56,13.20
2016,05,22,00,58,13.10
2016,05,22,01,00,13.10
2016,05,22,01,01,13.10
2016,05,22,01,02,13.20
2016,05,22,01,03,13.20
2016,05,22,01,05,13.10
2016,05,22,01,06,13.10
2016,05,22,01,07,13.10
2016,05,22,01,08,13.10
2016,05,22,01,10,13.10
2016,05,22,01,11,13.00
2016,05,22,01,12,13.00
2016,05,22,01,13,13.00
2016,05,22,01,14,12.90
2016,05,22,01,15,12.90
2016,05,22,01,17,12.90
2016,05,22,01,19,12.90
2016,05,22,01,20,12.90
2016,05,22,01,21,12.90
2016,05,22,01,22,12.90
2016,05,22,01,24,12.90
2016,05,22,01,26,12.80
2016,05,22,01,27,12.80
2016,05,22,01,28,12.80
2016,05,22,01,29,12.70
2016,05,22,01,31,12.70
2016,05,22,01,32,12.70
2016,05,22,01,33,12.70
2016,05,22,01,34,12.70
2016,05,22,01,35,12.70
2016,05,22,01,36,12.70
2016,05,22,01,38,12.60
2016,05,22,01,39,12.60
2016,05,22,01,40,12.50
2016,05,22,01,41,12.50
2016,05,22,01,43,12.40
2016,05,22,01,44,12.40
2016,05,22,01,45,12.40
2016,05,22,01,46,12.30
2016,05,22,01,47,12.30
2016,05,22,01,48,12.30
2016,05,22,01,50,12.20
2016,05,22,01,51,12.20
2016,05,22,01,52,12.20
2016,05,22,01,53,12.10
2016,05,22,01,55,12.00
2016,05,22,01,56,11.90
2016,05,22,01,57,11.90
2016,05,22,01,58,11.80
2016,05,22,02,00,11.70
2016,05,22,02,01,11.70
2016,05,22,02,02,11.60
2016,05,22,02,03,11.50
2016,05,22,02,05,11.40
2016,05,22,02,06,11.40
2016,05,22,02,07,11.30
2016,05,22,02,08,11.30
2016,05,22,02,09,11.30
2016,05,22,02,10,11.30
2016,05,22,02,12,11.20
2016,05,22,02,13,11.10
2016,05,22,02,14,11.00
2016,05,22,02,15,11.00
2016,05,22,02,16,11.00
2016,05,22,02,17,11.00
2016,05,22,02,19,10.90
2016,05,22,02,20,10.90
2016,05,22,02,21,10.90
2016,05,22,02,22,10.80
2016,05,22,02,24,10.80
2016,05,22,02,25,10.80
2016,05,22,02,26,10.80
2016,05,22,02,27,10.80
2016,05,22,02,28,10.80
2016,05,22,02,29,10.80
2016,05,22,02,30,10.70
2016,05,22,02,31,10.70
2016,05,22,02,33,10.60
2016,05,22,02,34,10.60
2016,05,22,02,35,10.50
2016,05,22,02,36,10.50
2016,05,22,02,38,10.40
2016,05,22,02,39,10.40
2016,05,22,02,40,10.40
2016,05,22,02,41,10.40
2016,05,22,02,43,10.40
2016,05,22,02,44,10.40
2016,05,22,02,45,10.40
2016,05,22,02,46,10.40
2016,05,22,02,47,10.40
2016,05,22,02,48,10.40
2016,05,22,02,50,10.40
2016,05,22,02,51,10.40
2016,05,22,02,52,10.40
2016,05,22,02,53,10.40
2016,05,22,02,55,10.40
2016,05,22,02,56,10.40
2016,05,22,02,57,10.40
2016,05,22,02,58,10.40
2016,05,22,02,59,10.40
2016,05,22,03,00,10.40
2016,05,22,03,01,10.50
2016,05,22,03,02,10.50
2016,05,22,03,04,10.50
2016,05,22,03,05,10.50
2016,05,22,03,06,10.60
2016,05,22,03,07,10.60
2016,05,22,03,09,10.60
2016,05,22,03,10,10.60
2016,05,22,03,11,10.50
2016,05,22,03,12,10.50
2016,05,22,03,13,10.50
2016,05,22,03,14,10.50
2016,05,22,03,15,10.50
2016,05,22,03,16,10.50
2016,05,22,03,17,10.50
2016,05,22,03,18,10.60
2016,05,22,03,19,10.60
2016,05,22,03,20,10.60
2016,05,22,03,21,10.60
2016,05,22,03,22,10.60
2016,05,22,03,23,10.60
2016,05,22,03,24,10.60
2016,05,22,03,25,10.60
2016,05,22,03,26,10.60
2016,05,22,03,27,10.70
2016,05,22,03,28,10.70
2016,05,22,03,29,10.80
2016,05,22,03,30,10.80
2016,05,22,03,31,10.90
2016,05,22,03,32,10.90
2016,05,22,03,33,10.90
2016,05,22,03,34,11.00
2016,05,22,03,36,11.00
2016,05,22,03,37,11.00
2016,05,22,03,38,11.00
2016,05,22,03,39,11.10
2016,05,22,03,41,11.20
2016,05,22,03,42,11.20
2016,05,22,03,43,11.20
2016,05,22,03,44,11.20
2016,05,22,03,45,11.20
2016,05,22,03,46,11.30
2016,05,22,03,47,11.30
2016,05,22,03,48,11.30
2016,05,22,03,49,11.30
2016,05,22,03,50,11.30
2016,05,22,03,51,11.30
2016,05,22,03,52,11.30
2016,05,22,03,53,11.30
2016,05,22,03,54,11.30
2016,05,22,03,55,11.40
2016,05,22,03,56,11.40
2016,05,22,03,57,11.50
2016,05,22,03,58,11.50
2016,05,22,04,00,11.60
2016,05,22,04,01,11.60
2016,05,22,04,02,11.70
2016,05,22,04,03,11.70
2016,05,22,04,04,11.70
2016,05,22,04,05,11.70
2016,05,22,04,06,11.70
2016,05,22,04,07,11.70
2016,05,22,04,08,11.70
2016,05,22,04,09,11.70
2016,05,22,04,10,11.70
2016,05,22,04,11,11.70
2016,05,22,04,12,11.70
2016,05,22,04,13,11.70
2016,05,22,04,14,11.70
2016,05,22,04,15,11.70
2016,05,22,04,16,11.70
2016,05,22,04,17,11.60
2016,05,22,04,18,11.60
2016,05,22,04,19,11.60
2016,05,22,04,20,11.60
2016,05,22,04,21,11.50
2016,05,22,04,22,11.50
2016,05,22,04,23,11.50
2016,05,22,04,24,11.50
2016,05,22,04,25,11.40
2016,05,22,04,26,11.40
2016,05,22,04,27,11.40
2016,05,22,04,28,11.40
2016,05,22,04,29,11.40
2016,05,22,04,30,11.40
2016,05,22,04,31,11.40
2016,05,22,04,32,11.40
2016,05,22,04,33,11.40
2016,05,22,04,34,11.40
2016,05,22,04,35,11.40
2016,05,22,04,36,11.40
2016,05,22,04,37,11.40
2016,05,22,04,38,11.50
2016,05,22,04,39,11.50
2016,05,22,04,40,11.60
2016,05,22,04,41,11.60
2016,05,22,04,42,11.60
2016,05,22,04,43,11.60
2016,05,22,04,44,11.60
2016,05,22,04,45,11.60
2016,05,22,04,46,11.60
2016,05,22,04,47,11.60
2016,05,22,04,48,11.60
2016,05,22,04,49,11.60
2016,05,22,04,50,11.60
2016,05,22,04,51,11.60
2016,05,22,04,52,11.60
2016,05,22,04,53,11.50
2016,05,22,04,54,11.50
2016,05,22,04,55,11.50
2016,05,22,04,56,11.50
2016,05,22,04,57,11.50
2016,05,22,04,58,11.50
2016,05,22,04,59,11.50
2016,05,22,05,00,11.50
2016,05,22,05,01,11.60
2016,05,22,05,02,11.60
2016,05,22,05,03,11.60
2016,05,22,05,04,11.70
2016,05,22,05,05,11.70
2016,05,22,05,06,11.80
2016,05,22,05,07,11.80
2016,05,22,05,08,11.90
2016,05,22,05,09,12.00
2016,05,22,05,10,12.00
2016,05,22,05,11,12.20
2016,05,22,05,12,12.20
2016,05,22,05,13,12.20
2016,05,22,05,14,12.30
2016,05,22,05,15,12.30
2016,05,22,05,16,12.30
2016,05,22,05,17,12.40
2016,05,22,05,18,12.40
2016,05,22,05,19,12.50
2016,05,22,05,20,12.50
2016,05,22,05,21,12.50
2016,05,22,05,22,12.50
2016,05,22,05,23,12.50
2016,05,22,05,24,12.50
2016,05,22,05,25,12.50
2016,05,22,05,26,12.50
2016,05,22,05,27,12.50
2016,05,22,05,28,12.50
2016,05,22,05,29,12.50
2016,05,22,05,30,12.50
2016,05,22,05,31,12.50
2016,05,22,05,32,12.40
2016,05,22,05,33,12.40
2016,05,22,05,34,12.40
2016,05,22,05,35,12.40
2016,05,22,05,36,12.40
2016,05,22,05,37,12.40
2016,05,22,05,38,12.40
2016,05,22,05,39,12.40
2016,05,22,05,40,12.40
2016,05,22,05,41,12.40
2016,05,22,05,42,12.40
2016,05,22,05,43,12.30
2016,05,22,05,44,12.30
2016,05,22,05,45,12.30
2016,05,22,05,46,12.30
2016,05,22,05,47,12.30
2016,05,22,05,48,12.30
2016,05,22,05,49,12.30
2016,05,22,05,50,12.30
2016,05,22,05,51,12.30
2016,05,22,05,52,12.30
2016,05,22,05,53,12.30
2016,05,22,05,54,12.30
2016,05,22,05,55,12.30
2016,05,22,05,56,12.30
2016,05,22,05,58,12.30
2016,05,22,06,00,12.30
2016,05,22,06,01,12.30
2016,05,22,06,03,12.30
2016,05,22,06,05,12.40
2016,05,22,06,06,12.40
2016,05,22,06,07,12.40
2016,05,22,06,08,12.40
2016,05,22,06,10,12.40
2016,05,22,06,11,12.40
2016,05,22,06,12,12.50
2016,05,22,06,13,12.50
2016,05,22,06,14,12.50
2016,05,22,06,15,12.50
2016,05,22,06,17,12.50
2016,05,22,06,18,12.50
2016,05,22,06,19,12.50
2016,05,22,06,20,12.50
2016,05,22,06,21,12.50
2016,05,22,06,22,12.50
2016,05,22,06,24,12.50
2016,05,22,06,25,12.50
2016,05,22,06,26,12.50
2016,05,22,06,27,12.50
2016,05,22,06,29,12.50
2016,05,22,06,30,12.50
2016,05,22,06,31,12.50
2016,05,22,06,32,12.50
2016,05,22,06,33,12.50
2016,05,22,06,34,12.50
2016,05,22,06,36,12.50
2016,05,22,06,37,12.50
2016,05,22,06,38,12.50
2016,05,22,06,39,12.50
2016,05,22,06,41,12.50
2016,05,22,06,42,12.50
2016,05,22,06,43,12.50
2016,05,22,06,44,12.50
2016,05,22,06,46,12.60
2016,05,22,06,47,12.60
2016,05,22,06,48,12.60
2016,05,22,06,49,12.70
2016,05,22,06,51,12.70
2016,05,22,06,52,12.70
2016,05,22,06,53,12.70
2016,05,22,06,54,12.80
2016,05,22,06,56,12.90
2016,05,22,06,57,12.90
2016,05,22,06,58,13.00
2016,05,22,06,59,13.00
2016,05,22,07,01,13.10
2016,05,22,07,02,13.10
2016,05,22,07,03,13.20
2016,05,22,07,04,13.20
2016,05,22,07,06,13.20
2016,05,22,07,07,13.20
2016,05,22,07,08,13.20
2016,05,22,07,09,13.30
2016,05,22,07,11,13.30
2016,05,22,07,12,13.30
2016,05,22,07,13,13.40
2016,05,22,07,14,13.40
2016,05,22,07,15,13.40
2016,05,22,07,16,13.40
2016,05,22,07,18,13.50
2016,05,22,07,19,13.50
2016,05,22,07,20,13.50
2016,05,22,07,21,13.50
2016,05,22,07,23,13.60
2016,05,22,07,24,13.60
2016,05,22,07,25,13.60
2016,05,22,07,26,13.60
2016,05,22,07,27,13.60
2016,05,22,07,28,13.70
2016,05,22,07,30,13.70
2016,05,22,07,31,13.70
2016,05,22,07,32,13.70
2016,05,22,07,33,13.70
2016,05,22,07,34,13.70
2016,05,22,07,35,13.70
2016,05,22,07,36,13.70
2016,05,22,07,37,13.70
2016,05,22,07,38,13.70
2016,05,22,07,39,13.70
2016,05,22,07,40,13.80
2016,05,22,07,42,13.80
2016,05,22,07,43,13.80
2016,05,22,07,44,13.80
2016,05,22,07,45,13.80
2016,05,22,07,47,13.90
2016,05,22,07,48,13.90
2016,05,22,07,49,13.90
2016,05,22,07,50,13.90
2016,05,22,07,52,13.90
2016,05,22,07,53,13.90
2016,05,22,07,54,13.90
2016,05,22,07,55,13.90
2016,05,22,07,57,14.10
2016,05,22,07,58,14.10
2016,05,22,07,59,14.10
2016,05,22,08,00,14.10
2016,05,22,08,02,14.10
2016,05,22,08,03,14.20
2016,05,22,08,04,14.20
2016,05,22,08,05,14.20
2016,05,22,08,06,14.30
2016,05,22,08,07,14.30
2016,05,22,08,08,14.30
2016,05,22,08,09,14.30
2016,05,22,08,10,14.30
2016,05,22,08,11,14.30
2016,05,22,08,12,14.40
2016,05,22,08,13,14.40
2016,05,22,08,14,14.40
2016,05,22,08,15,14.40
2016,05,22,08,16,14.50
2016,05,22,08,17,14.50
2016,05,22,08,19,14.50
2016,05,22,08,20,14.50
2016,05,22,08,21,14.60
2016,05,22,08,22,14.60
2016,05,22,08,23,14.60
2016,05,22,08,24,14.60
2016,05,22,08,25,14.60
2016,05,22,08,26,14.60
2016,05,22,08,27,14.60
2016,05,22,08,28,14.50
2016,05,22,08,29,14.50
2016,05,22,08,30,14.50
2016,05,22,08,31,14.50
2016,05,22,08,32,14.50
2016,05,22,08,33,14.50
2016,05,22,08,34,14.50
2016,05,22,08,35,14.50
2016,05,22,08,36,14.50
2016,05,22,08,37,14.50
2016,05,22,08,38,14.40
2016,05,22,08,39,14.40
2016,05,22,08,40,14.40
2016,05,22,08,41,14.40
2016,05,22,08,42,14.30
2016,05,22,08,43,14.30
2016,05,22,08,44,14.30
2016,05,22,08,45,14.30
2016,05,22,08,46,14.20
2016,05,22,08,47,14.20
2016,05,22,08,48,14.10
2016,05,22,08,49,14.10
2016,05,22,08,50,14.10
2016,05,22,08,51,14.10
2016,05,22,08,52,14.10
2016,05,22,08,53,14.10
2016,05,22,08,54,14.10
2016,05,22,08,55,14.10
2016,05,22,08,56,13.90
2016,05,22,08,57,13.90
2016,05,22,08,58,13.90
2016,05,22,08,59,13.90
2016,05,22,09,00,13.90
2016,05,22,09,01,13.90
2016,05,22,09,02,13.90
2016,05,22,09,03,13.80
2016,05,22,09,04,13.80
2016,05,22,09,05,13.80
2016,05,22,09,06,13.80
2016,05,22,09,07,13.90
2016,05,22,09,08,13.90
2016,05,22,09,09,13.90
2016,05,22,09,10,13.90
2016,05,22,09,11,13.90
2016,05,22,09,12,13.80
2016,05,22,09,13,13.80
2016,05,22,09,14,13.90
2016,05,22,09,15,13.90
2016,05,22,09,16,13.90
2016,05,22,09,17,13.90
2016,05,22,09,18,13.90
2016,05,22,09,19,13.90
2016,05,22,09,20,13.90
2016,05,22,09,21,14.10
2016,05,22,09,22,14.10
2016,05,22,09,23,14.10
2016,05,22,09,24,14.10
2016,05,22,09,25,13.90
2016,05,22,09,26,13.90
2016,05,22,09,27,13.90
2016,05,22,09,28,13.90
2016,05,22,09,29,14.10
2016,05,22,09,30,13.90
2016,05,22,09,31,14.10
2016,05,22,09,32,14.10
2016,05,22,09,33,14.10
2016,05,22,09,34,14.10
2016,05,22,09,35,14.10
2016,05,22,09,36,14.10
2016,05,22,09,37,14.10
2016,05,22,09,38,14.10
2016,05,22,09,39,14.10
2016,05,22,09,40,14.10
2016,05,22,09,41,14.10
2016,05,22,09,42,14.10
2016,05,22,09,43,14.20
2016,05,22,09,44,14.20
2016,05,22,09,45,14.20
2016,05,22,09,46,14.20
2016,05,22,09,47,14.20
2016,05,22,09,48,14.30
2016,05,22,09,49,14.30
2016,05,22,09,50,14.40
2016,05,22,09,51,14.40
2016,05,22,09,52,14.40
2016,05,22,09,53,14.30
2016,05,22,09,54,14.30
2016,05,22,09,55,14.30
2016,05,22,09,56,14.30
2016,05,22,09,57,14.30
2016,05,22,09,58,14.30
2016,05,22,09,59,14.30
2016,05,22,10,00,14.40
2016,05,22,10,01,14.40
2016,05,22,10,02,14.40
2016,05,22,10,03,14.50
2016,05,22,10,04,14.50
2016,05,22,10,05,14.60
2016,05,22,10,06,14.70
2016,05,22,10,07,14.70
2016,05,22,10,08,14.70
2016,05,22,10,09,14.80
2016,05,22,10,10,14.80
2016,05,22,10,11,14.90
2016,05,22,10,12,14.90
2016,05,22,10,13,14.90
2016,05,22,10,14,14.90
2016,05,22,10,15,15.00
2016,05,22,10,16,15.00
2016,05,22,10,17,15.00
2016,05,22,10,18,15.00
2016,05,22,10,19,15.00
2016,05,22,10,20,15.00
2016,05,22,10,21,15.10
2016,05,22,10,22,15.20
2016,05,22,10,23,15.20
2016,05,22,10,24,15.30
2016,05,22,10,25,15.40
2016,05,22,10,26,15.40
2016,05,22,10,27,15.60
2016,05,22,10,28,15.70
2016,05,22,10,29,15.70
2016,05,22,10,30,15.70
2016,05,22,10,31,15.70
2016,05,22,10,32,15.80
2016,05,22,10,33,15.80
2016,05,22,10,34,15.90
2016,05,22,10,35,16.00
2016,05,22,10,36,16.00
2016,05,22,10,37,16.10
2016,05,22,10,38,16.00
2016,05,22,10,39,16.10
2016,05,22,10,40,16.20
2016,05,22,10,42,16.30
2016,05,22,10,43,16.40
2016,05,22,10,45,16.70
2016,05,22,10,46,16.90
2016,05,22,10,47,16.90
2016,05,22,10,48,17.10
2016,05,22,10,50,17.20
2016,05,22,10,51,17.30
2016,05,22,10,52,17.40
2016,05,22,10,53,17.50
2016,05,22,10,55,17.60
2016,05,22,10,57,17.70
2016,05,22,10,58,17.60
2016,05,22,11,00,17.50
2016,05,22,11,02,17.40
2016,05,22,11,03,17.40
2016,05,22,11,05,17.40
2016,05,22,11,07,17.50
2016,05,22,11,08,17.60
2016,05,22,11,09,17.60
2016,05,22,11,10,17.70
2016,05,22,11,12,17.70
2016,05,22,11,13,17.70
2016,05,22,11,14,17.80
2016,05,22,11,15,17.80
2016,05,22,11,16,17.80
2016,05,22,11,17,17.80
2016,05,22,11,19,17.80
2016,05,22,11,20,17.80
2016,05,22,11,21,17.80
2016,05,22,11,22,17.80
2016,05,22,11,24,17.80
2016,05,22,11,25,17.80
2016,05,22,11,26,17.80
2016,05,22,11,27,17.80
2016,05,22,11,29,17.80
2016,05,22,11,30,17.80
2016,05,22,11,31,17.80
2016,05,22,11,32,17.80
2016,05,22,11,33,17.90
2016,05,22,11,34,17.90
2016,05,22,11,36,17.80
2016,05,22,11,37,17.80
2016,05,22,11,38,17.80
2016,05,22,11,39,17.70
2016,05,22,11,41,17.60
2016,05,22,11,42,17.60
2016,05,22,11,43,17.50
2016,05,22,11,44,17.50
2016,05,22,11,45,17.50
2016,05,22,11,46,17.50
2016,05,22,11,48,17.40
2016,05,22,11,49,17.40
2016,05,22,11,50,17.50
2016,05,22,11,51,17.50
2016,05,22,11,53,17.50
2016,05,22,11,54,17.60
2016,05,22,11,55,17.70
2016,05,22,11,56,17.80
2016,05,22,11,58,17.90
2016,05,22,11,59,17.90
2016,05,22,12,00,17.90
2016,05,22,12,01,18.00
2016,05,22,12,02,18.10
2016,05,22,12,03,18.10
2016,05,22,12,05,18.00
2016,05,22,12,06,18.00
2016,05,22,12,07,17.90
2016,05,22,12,08,17.80
2016,05,22,12,09,17.70
2016,05,22,12,10,17.60
2016,05,22,12,12,17.50
2016,05,22,12,13,17.50
2016,05,22,12,14,17.60
2016,05,22,12,15,17.70
2016,05,22,12,17,17.80
2016,05,22,12,18,17.80
2016,05,22,12,19,17.80
2016,05,22,12,20,17.80
2016,05,22,12,22,17.80
2016,05,22,12,23,17.70
2016,05,22,12,24,17.70
2016,05,22,12,25,17.60
2016,05,22,12,27,17.40
2016,05,22,12,28,17.30
2016,05,22,12,29,17.30
2016,05,22,12,30,17.30
2016,05,22,12,32,17.10
2016,05,22,12,33,17.10
2016,05,22,12,34,16.90
2016,05,22,12,35,16.90
2016,05,22,12,37,16.90
2016,05,22,12,38,16.90
2016,05,22,12,39,16.90
2016,05,22,12,40,16.90
2016,05,22,12,41,17.10
2016,05,22,12,42,17.10
2016,05,22,12,44,17.10
2016,05,22,12,45,17.10
2016,05,22,12,46,17.10
2016,05,22,12,47,17.10
2016,05,22,12,48,16.90
2016,05,22,12,49,16.90
2016,05,22,12,51,16.90
2016,05,22,12,52,16.90
2016,05,22,12,53,16.90
2016,05,22,12,54,16.90
2016,05,22,12,56,16.90
2016,05,22,12,57,16.90
2016,05,22,12,58,16.90
2016,05,22,12,59,16.90
2016,05,22,13,00,16.90
2016,05,22,13,01,16.90
2016,05,22,13,03,16.90
2016,05,22,13,04,16.90
2016,05,22,13,05,16.90
2016,05,22,13,06,16.90
2016,05,22,13,07,17.10
2016,05,22,13,08,17.10
2016,05,22,13,09,17.10
2016,05,22,13,10,17.10
2016,05,22,13,11,17.10
2016,05,22,13,12,17.10
2016,05,22,13,13,17.20
2016,05,22,13,14,17.20
2016,05,22,13,15,17.20
2016,05,22,13,16,17.30
2016,05,22,13,17,17.30
2016,05,22,13,18,17.40
2016,05,22,13,20,17.70
2016,05,22,13,21,17.80
2016,05,22,13,22,17.80
2016,05,22,13,23,17.90
2016,05,22,13,24,17.90
2016,05,22,13,25,17.90
2016,05,22,13,26,17.90
2016,05,22,13,27,17.90
2016,05,22,13,28,17.90
2016,05,22,13,29,17.80
2016,05,22,13,30,17.80
2016,05,22,13,32,17.70
2016,05,22,13,33,17.70
2016,05,22,13,34,17.70
2016,05,22,13,35,17.70
2016,05,22,13,37,17.70
2016,05,22,13,38,17.70
2016,05,22,13,39,17.60
2016,05,22,13,40,17.60
2016,05,22,13,42,17.50
2016,05,22,13,43,17.40
2016,05,22,13,44,17.40
2016,05,22,13,45,17.40
2016,05,22,13,46,17.30
2016,05,22,13,47,17.30
2016,05,22,13,48,17.30
2016,05,22,13,49,17.30
2016,05,22,13,50,17.30
2016,05,22,13,51,17.40
2016,05,22,13,52,17.50
2016,05,22,13,53,17.50
2016,05,22,13,54,17.60
2016,05,22,13,55,17.60
2016,05,22,13,56,17.70
2016,05,22,13,57,17.70
2016,05,22,13,58,17.80
2016,05,22,13,59,17.80
2016,05,22,14,00,17.70
2016,05,22,14,01,17.70
2016,05,22,14,02,17.70
2016,05,22,14,03,17.70
2016,05,22,14,04,17.70
2016,05,22,14,05,17.70
2016,05,22,14,06,17.70
2016,05,22,14,07,17.70
2016,05,22,14,08,17.70
2016,05,22,14,09,17.70
2016,05,22,14,10,17.70
2016,05,22,14,11,17.60
2016,05,22,14,12,17.60
2016,05,22,14,13,17.60
2016,05,22,14,14,17.60
2016,05,22,14,15,17.60
2016,05,22,14,16,17.60
2016,05,22,14,17,17.60
2016,05,22,14,18,17.60
2016,05,22,14,19,17.60
2016,05,22,14,20,17.60
2016,05,22,14,21,17.60
2016,05,22,14,22,17.60
2016,05,22,14,23,17.60
2016,05,22,14,24,17.60
2016,05,22,14,25,17.60
2016,05,22,14,26,17.50
2016,05,22,14,27,17.50
2016,05,22,14,28,17.50
2016,05,22,14,29,17.50
2016,05,22,14,30,17.50
2016,05,22,14,31,17.60
2016,05,22,14,32,17.60
2016,05,22,14,33,17.50
2016,05,22,14,34,17.50
2016,05,22,14,35,17.50
2016,05,22,14,36,17.50
2016,05,22,14,37,17.50
2016,05,22,14,38,17.50
2016,05,22,14,39,17.50
2016,05,22,14,40,17.50
2016,05,22,14,41,17.50
2016,05,22,14,42,17.40
2016,05,22,14,43,17.40
2016,05,22,14,44,17.40
2016,05,22,14,45,17.30
2016,05,22,14,47,17.20
2016,05,22,14,48,17.20
2016,05,22,14,49,17.20
2016,05,22,14,50,17.10
2016,05,22,14,51,17.10
2016,05,22,14,52,17.10
2016,05,22,14,53,17.10
2016,05,22,14,54,17.10
2016,05,22,14,55,17.10
2016,05,22,14,56,17.10
2016,05,22,14,57,17.20
2016,05,22,14,58,17.20
2016,05,22,14,59,17.20
2016,05,22,15,00,17.20
2016,05,22,15,01,17.20
2016,05,22,15,02,17.20
2016,05,22,15,03,17.20
2016,05,22,15,04,17.20
2016,05,22,15,05,17.20
2016,05,22,15,06,17.10
2016,05,22,15,07,17.10
2016,05,22,15,08,17.10
2016,05,22,15,09,17.10
2016,05,22,15,10,17.10
2016,05,22,15,11,16.90
2016,05,22,15,12,16.90
2016,05,22,15,13,16.90
2016,05,22,15,14,16.80
2016,05,22,15,15,16.80
2016,05,22,15,16,16.80
2016,05,22,15,17,16.80
2016,05,22,15,18,16.80
2016,05,22,15,19,16.70
2016,05,22,15,20,16.70
2016,05,22,15,21,16.70
2016,05,22,15,22,16.70
2016,05,22,15,23,16.70
2016,05,22,15,24,16.70
2016,05,22,15,25,16.80
2016,05,22,15,26,16.90
2016,05,22,15,27,16.90
2016,05,22,15,28,17.10
2016,05,22,15,29,17.10
2016,05,22,15,30,17.40
2016,05,22,15,31,17.60
2016,05,22,15,32,17.80
2016,05,22,15,33,17.90
2016,05,22,15,34,18.00
2016,05,22,15,35,18.20
2016,05,22,15,36,18.20
2016,05,22,15,37,18.30
2016,05,22,15,38,18.40
2016,05,22,15,39,18.40
2016,05,22,15,40,18.40
2016,05,22,15,41,18.50
2016,05,22,15,42,18.50
2016,05,22,15,43,18.50
2016,05,22,15,44,18.50
2016,05,22,15,45,18.50
2016,05,22,15,46,18.50
2016,05,22,15,47,18.50
2016,05,22,15,48,18.50
2016,05,22,15,49,18.60
2016,05,22,15,50,18.70
2016,05,22,15,51,18.70
2016,05,22,15,52,18.70
2016,05,22,15,53,18.70
2016,05,22,15,54,18.70
2016,05,22,15,55,18.70
2016,05,22,15,56,18.70
2016,05,22,15,57,18.50
2016,05,22,15,58,18.50
2016,05,22,15,59,18.30
2016,05,22,16,00,18.20
2016,05,22,16,01,18.00
2016,05,22,16,02,18.00
2016,05,22,16,03,17.90
2016,05,22,16,04,17.80
2016,05,22,16,05,17.80
2016,05,22,16,06,17.70
2016,05,22,16,07,17.60
2016,05,22,16,08,17.50
2016,05,22,16,09,17.50
2016,05,22,16,10,17.50
2016,05,22,16,11,17.50
2016,05,22,16,12,17.50
2016,05,22,16,13,17.50
2016,05,22,16,14,17.50
2016,05,22,16,15,17.60
2016,05,22,16,16,17.60
2016,05,22,16,17,17.70
2016,05,22,16,18,17.70
2016,05,22,16,19,17.80
2016,05,22,16,20,17.90
2016,05,22,16,21,18.00
2016,05,22,16,22,18.00
2016,05,22,16,23,18.00
2016,05,22,16,24,18.10
2016,05,22,16,25,18.20
2016,05,22,16,26,18.20
2016,05,22,16,27,18.30
2016,05,22,16,28,18.30
2016,05,22,16,29,18.30
2016,05,22,16,30,18.40
2016,05,22,16,31,18.30
2016,05,22,16,32,18.30
2016,05,22,16,33,18.40
2016,05,22,16,34,18.40
2016,05,22,16,35,18.40
2016,05,22,16,36,18.50
2016,05,22,16,38,18.50
2016,05,22,16,39,18.50
2016,05,22,16,41,18.60
2016,05,22,16,42,18.70
2016,05,22,16,43,18.70
2016,05,22,16,44,18.70
2016,05,22,16,46,18.70
2016,05,22,16,48,18.70
2016,05,22,16,49,18.70
2016,05,22,16,50,18.70
2016,05,22,16,51,18.70
2016,05,22,16,53,18.80
2016,05,22,16,54,18.80
2016,05,22,16,55,18.80
2016,05,22,16,56,18.90
2016,05,22,16,58,18.90
2016,05,22,17,00,19.00
2016,05,22,17,01,19.00
2016,05,22,17,02,19.10
2016,05,22,17,03,19.10
2016,05,22,17,05,19.10
2016,05,22,17,07,19.00
2016,05,22,17,08,19.00
2016,05,22,17,09,19.00
2016,05,22,17,10,19.10
2016,05,22,17,12,19.10
2016,05,22,17,13,19.20
2016,05,22,17,14,19.10
2016,05,22,17,15,19.10
2016,05,22,17,17,19.10
2016,05,22,17,18,19.10
2016,05,22,17,19,19.10
2016,05,22,17,20,19.10
2016,05,22,17,22,19.00
2016,05,22,17,23,19.00
2016,05,22,17,24,18.90
2016,05,22,17,25,18.90
2016,05,22,17,27,18.90
2016,05,22,17,28,18.90
2016,05,22,17,29,18.90
2016,05,22,17,30,18.90
2016,05,22,17,31,18.90
2016,05,22,17,32,18.90
2016,05,22,17,34,19.00
2016,05,22,17,35,19.00
2016,05,22,17,36,19.00
2016,05,22,17,37,19.10
2016,05,22,17,39,19.10
2016,05,22,17,41,19.20
2016,05,22,17,42,19.20
2016,05,22,17,44,19.20
2016,05,22,17,46,19.20
2016,05,22,17,47,19.20
2016,05,22,17,48,19.20
2016,05,22,17,49,19.20
2016,05,22,17,51,19.20
2016,05,22,17,52,19.20
2016,05,22,17,53,19.20
2016,05,22,17,54,19.10
2016,05,22,17,55,19.10
2016,05,22,17,56,19.00
2016,05,22,17,58,18.90
2016,05,22,17,59,18.80
2016,05,22,18,00,18.80
2016,05,22,18,01,18.70
2016,05,22,18,03,18.70
2016,05,22,18,05,18.70
2016,05,22,18,06,18.60
2016,05,22,18,07,18.50
2016,05,22,18,08,18.50
2016,05,22,18,10,18.50
2016,05,22,18,11,18.40
2016,05,22,18,12,18.50
2016,05,22,18,13,18.50
2016,05,22,18,15,18.50
2016,05,22,18,16,18.50
2016,05,22,18,17,18.50
2016,05,22,18,18,18.50
2016,05,22,18,20,18.50
2016,05,22,18,21,18.50
2016,05,22,18,22,18.40
2016,05,22,18,23,18.40
2016,05,22,18,25,18.30
2016,05,22,18,26,18.30
2016,05,22,18,27,18.20
2016,05,22,18,28,18.20
2016,05,22,18,30,18.00
2016,05,22,18,31,18.00
2016,05,22,18,32,17.90
2016,05,22,18,33,17.90
2016,05,22,18,34,17.90
2016,05,22,18,35,18.00
2016,05,22,18,37,17.90
2016,05,22,18,38,18.00
2016,05,22,18,39,18.00
2016,05,22,18,40,18.00
2016,05,22,18,42,18.00
2016,05,22,18,43,17.90
2016,05,22,18,44,17.90
2016,05,22,18,45,17.90
2016,05,22,18,46,17.90
2016,05,22,18,47,17.80
2016,05,22,18,48,17.80
2016,05,22,18,49,17.80
2016,05,22,18,50,17.80
2016,05,22,18,51,17.80
2016,05,22,18,52,17.80
2016,05,22,18,53,17.80
2016,05,22,18,54,17.80
2016,05,22,18,55,17.80
2016,05,22,18,56,17.80
2016,05,22,18,57,17.80
2016,05,22,18,58,17.80
2016,05,22,18,59,17.80
2016,05,22,19,00,17.80
2016,05,22,19,01,17.80
2016,05,22,19,02,17.80
2016,05,22,19,03,17.80
2016,05,22,19,04,17.80
2016,05,22,19,05,17.80
2016,05,22,19,06,17.80
2016,05,22,19,07,17.80
2016,05,22,19,08,17.70
2016,05,22,19,09,17.70
2016,05,22,19,10,17.70
2016,05,22,19,11,17.60
2016,05,22,19,12,17.60
2016,05,22,19,13,17.60
2016,05,22,19,14,17.60
2016,05,22,19,15,17.50
2016,05,22,19,16,17.40
2016,05,22,19,17,17.40
2016,05,22,19,18,17.40
2016,05,22,19,19,17.40
2016,05,22,19,20,17.40
2016,05,22,19,21,17.40
2016,05,22,19,22,17.40
2016,05,22,19,23,17.40
2016,05,22,19,24,17.40
2016,05,22,19,25,17.30